{"data":{"norad_id":68588,"intl_designator":"2026-072R","name":"KUIPER-00272","alt_names":[],"object_type":"PAYLOAD","status":"ACTIVE","operator":null,"country":"US","launch_date":"2026-04-04","launch_site_code":"AFETR","launch_vehicle":null,"mission":null,"orbit_class":"UNKNOWN","rcs_meters":null,"size_class":null,"mass_kg":null,"dimensions":null,"purposes":[],"wikipedia_slug":null,"has_3d_model":false,"image_url":null,"decayed_at":null,"tle_current":{"epoch":"2026-09-20T01:45:13.214304Z","epoch_age_seconds":103372,"freshness":"FRESH","line1":"1 68588U 26072R   26263.07306961  .00001917  00000+0  28035-3 0  9991","line2":"2 68588  51.8990 133.5390 0001029 117.9863 242.1204 14.79933692 25207","mean_motion":14.79933692,"eccentricity":0.0001029,"inclination_deg":51.899,"raan_deg":133.539,"arg_perigee_deg":117.9863,"mean_anomaly_deg":242.1204,"bstar":0.00028035,"rev_number":2520,"period_min":97.301656674494,"perigee_km":628.81235541456,"apogee_km":630.25453399208,"semimajor_km":7007.6704447033,"source":"CELESTRAK","updated_at":"2026-09-20T09:00:24.322399Z"}}}